Location: Audinghen
(50.8518°N, 1.6129°E)
Time: 03:59:51
(UTC+00:00)

Cosmos 1733 - Pass Details

Date: 07 August 2020
Orbit: 504 x 522 km, 82.5° (Epoch: 23 September)

Event Time Altitude Azimuth Distance (km) Brightness Sun altitude
Exits shadow 01:42:57 27° 141° (SE) 1,005 4.4 -19.1°
Maximum altitude 01:44:24 39° 93° (E) 781 4.2 -19.0°
Drops below altitude 10° 01:48:01 10° 24° (NNE) 1,759 7.2 -18.7°
Sets 01:50:15 0° 17° (NNE) 2,655 8.4 -18.6°
